When you browse on this site, cookies collect data to enhance your experience and personalize the content and advertising you see.
Visit our Privacy Policy to learn more. By continuing to use the site, you agree to this use of cookies and data.
  • In Hungary
  • List of Countries
  • For 7 days
  • Water Temperature
  • Satellite Maps
  • Weather Map
  • News
  • Weather Widgets
  • user-avatar
    Login

    Hourly Weather Bangalol

    Today, 22 July, Monday

    Time Temperature Precipitation Wind Pressure Humidity
    00:00 +25°C° 0.1 mm 5 mps 695 mmHg 84%
    01:00 +24°C° 0.1 mm 6 mps 694 mmHg 83%
    02:00 +23°C° 0.1 mm 6 mps 694 mmHg 83%
    03:00 +23°C° 0.2 mm 6 mps 694 mmHg 83%
    04:00 +23°C° 0.2 mm 5 mps 693 mmHg 83%
    05:00 +23°C° 0 mm 4 mps 693 mmHg 82%
    06:00 +25°C° 0.1 mm 5 mps 694 mmHg 81%
    07:00 +25°C° 0.1 mm 5 mps 694 mmHg 81%
    08:00 +24°C° 0.1 mm 6 mps 695 mmHg 80%
    09:00 +26°C° 0.1 mm 6 mps 695 mmHg 76%
    10:00 +27°C° 0.1 mm 6 mps 695 mmHg 72%
    11:00 +28°C° 0 mm 6 mps 695 mmHg 68%
    12:00 +28°C° 1.4 mm 6 mps 695 mmHg 70%
    13:00 +27°C° 1.4 mm 6 mps 694 mmHg 73%
    14:00 +27°C° 1.4 mm 6 mps 694 mmHg 75%
    15:00 +26°C° 3.6 mm 5 mps 694 mmHg 81%
    16:00 +25°C° 3.6 mm 5 mps 693 mmHg 86%
    17:00 +23°C° 3.6 mm 4 mps 693 mmHg 92%
    18:00 +22°C° 5.3 mm 5 mps 694 mmHg 92%
    19:00 +22°C° 5.3 mm 5 mps 694 mmHg 93%
    20:00 +22°C° 5.3 mm 6 mps 695 mmHg 94%
    21:00 +22°C° 4.2 mm 5 mps 695 mmHg 93%
    22:00 +22°C° 4.2 mm 5 mps 695 mmHg 93%
    23:00 +22°C° 4.2 mm 5 mps 695 mmHg 93%

    Tomorrow, 23 July, Tuesday

    Time Temperature Precipitation Wind Pressure Humidity
    00:00 +21°C° 1 mm 5 mps 694 mmHg 92%
    01:00 +21°C° 1 mm 6 mps 694 mmHg 91%
    02:00 +21°C° 1 mm 6 mps 693 mmHg 89%
    03:00 +21°C° 0 mm 5 mps 693 mmHg 89%
    04:00 +21°C° 0 mm 5 mps 693 mmHg 89%
    05:00 +21°C° 0 mm 4 mps 693 mmHg 89%
    06:00 +21°C° 0 mm 4 mps 693 mmHg 88%
    07:00 +22°C° 0 mm 5 mps 694 mmHg 87%
    08:00 +22°C° 0 mm 5 mps 694 mmHg 86%
    09:00 +23°C° 0 mm 5 mps 695 mmHg 80%
    10:00 +26°C° 0 mm 6 mps 695 mmHg 75%
    11:00 +27°C° 0 mm 7 mps 695 mmHg 69%
    12:00 +28°C° 0.2 mm 7 mps 695 mmHg 68%
    13:00 +28°C° 0.2 mm 7 mps 694 mmHg 68%
    14:00 +28°C° 0.2 mm 7 mps 694 mmHg 67%
    15:00 +27°C° 0.7 mm 6 mps 694 mmHg 69%
    16:00 +27°C° 0.7 mm 6 mps 694 mmHg 72%
    17:00 +26°C° 0.7 mm 6 mps 694 mmHg 74%
    18:00 +26°C° 0.2 mm 5 mps 694 mmHg 78%
    19:00 +25°C° 0.2 mm 5 mps 695 mmHg 81%
    20:00 +23°C° 0.2 mm 4 mps 695 mmHg 84%
    21:00 +23°C° 0 mm 4 mps 695 mmHg 84%
    22:00 +23°C° 0 mm 4 mps 695 mmHg 85%
    23:00 +23°C° 0 mm 4 mps 696 mmHg 86%

    Day after tomorrow, 24 July, Wednesday

    Time Temperature Precipitation Wind Pressure Humidity
    00:00 +22°C° 0 mm 4 mps 695 mmHg 87%
    01:00 +22°C° 0 mm 4 mps 695 mmHg 87%
    02:00 +22°C° 0 mm 3 mps 694 mmHg 88%
    03:00 +22°C° 0 mm 3 mps 694 mmHg 89%
    04:00 +22°C° 0 mm 3 mps 694 mmHg 89%
    05:00 +21°C° 0 mm 3 mps 694 mmHg 90%
    06:00 +22°C° 0 mm 4 mps 695 mmHg 86%
    07:00 +23°C° 0 mm 4 mps 695 mmHg 82%
    08:00 +25°C° 0 mm 5 mps 696 mmHg 79%
    09:00 +26°C° 0.1 mm 5 mps 696 mmHg 74%
    10:00 +27°C° 0.1 mm 5 mps 696 mmHg 69%
    11:00 +29°C° 0.1 mm 5 mps 696 mmHg 65%
    12:00 +29°C° 0.9 mm 5 mps 696 mmHg 64%
    13:00 +29°C° 0.9 mm 5 mps 695 mmHg 63%
    14:00 +30°C° 0.9 mm 5 mps 694 mmHg 63%
    15:00 +29°C° 2.3 mm 5 mps 694 mmHg 66%
    16:00 +28°C° 2.3 mm 6 mps 694 mmHg 70%
    17:00 +27°C° 2.3 mm 6 mps 694 mmHg 74%
    18:00 +27°C° 0.6 mm 5 mps 695 mmHg 77%
    19:00 +26°C° 0.6 mm 4 mps 695 mmHg 80%
    20:00 +25°C° 0.6 mm 3 mps 696 mmHg 83%
    21:00 +25°C° 0 mm 3 mps 696 mmHg 85%
    22:00 +24°C° 0 mm 3 mps 696 mmHg 86%
    23:00 +24°C° 0 mm 3 mps 697 mmHg 88%

    25 July, Thursday

    Time Temperature Precipitation Wind Pressure Humidity
    00:00 +24°C° 0 mm 3 mps 696 mmHg 88%
    01:00 +22°C° 0 mm 3 mps 695 mmHg 89%
    02:00 +22°C° 0 mm 3 mps 695 mmHg 90%
    03:00 +22°C° 0 mm 3 mps 695 mmHg 91%
    04:00 +22°C° 0 mm 3 mps 695 mmHg 91%
    05:00 +22°C° 0 mm 3 mps 695 mmHg 92%
    06:00 +22°C° 0 mm 3 mps 696 mmHg 88%
    07:00 +23°C° 0 mm 4 mps 696 mmHg 84%
    08:00 +25°C° 0 mm 5 mps 697 mmHg 81%
    09:00 +26°C° 0 mm 5 mps 697 mmHg 76%
    10:00 +27°C° 0 mm 5 mps 697 mmHg 71%
    11:00 +29°C° 0 mm 5 mps 697 mmHg 66%
    12:00 +29°C° 0.2 mm 5 mps 697 mmHg 63%
    13:00 +30°C° 0.2 mm 5 mps 696 mmHg 61%
    14:00 +32°C° 0.2 mm 5 mps 695 mmHg 58%
    15:00 +30°C° 2.2 mm 5 mps 695 mmHg 62%
    16:00 +29°C° 2.2 mm 5 mps 695 mmHg 66%
    17:00 +28°C° 2.2 mm 5 mps 695 mmHg 70%
    18:00 +27°C° 0.4 mm 5 mps 695 mmHg 72%
    19:00 +26°C° 0.4 mm 4 mps 696 mmHg 75%
    20:00 +26°C° 0.4 mm 4 mps 697 mmHg 78%
    21:00 +25°C° 0 mm 4 mps 697 mmHg 80%
    22:00 +25°C° 0 mm 4 mps 697 mmHg 82%
    23:00 +23°C° 0 mm 4 mps 697 mmHg 85%

    26 July, Friday

    Time Temperature Precipitation Wind Pressure Humidity
    00:00 +23°C° 0 mm 4 mps 696 mmHg 86%
    01:00 +22°C° 0 mm 3 mps 696 mmHg 87%
    02:00 +22°C° 0 mm 3 mps 695 mmHg 88%
    03:00 +22°C° 0 mm 3 mps 695 mmHg 89%
    04:00 +22°C° 0 mm 3 mps 695 mmHg 90%
    05:00 +23°C° 0 mm 2 mps 695 mmHg 90%
    06:00 +22°C° 0 mm 3 mps 696 mmHg 87%
    07:00 +23°C° 0 mm 4 mps 696 mmHg 84%
    08:00 +25°C° 0 mm 4 mps 697 mmHg 81%
    09:00 +26°C° 0 mm 4 mps 697 mmHg 77%
    10:00 +26°C° 0 mm 5 mps 697 mmHg 73%
    11:00 +27°C° 0 mm 5 mps 697 mmHg 70%
    12:00 +27°C° 0.3 mm 5 mps 697 mmHg 69%
    13:00 +28°C° 0.3 mm 5 mps 696 mmHg 68%
    14:00 +28°C° 0.3 mm 5 mps 696 mmHg 67%
    15:00 +27°C° 0.6 mm 5 mps 696 mmHg 70%
    16:00 +26°C° 0.6 mm 5 mps 696 mmHg 73%
    17:00 +25°C° 0.6 mm 4 mps 696 mmHg 76%
    18:00 +25°C° 0.2 mm 4 mps 696 mmHg 79%
    19:00 +23°C° 0.2 mm 4 mps 697 mmHg 82%
    20:00 +24°C° 0.2 mm 3 mps 697 mmHg 85%
    21:00 +24°C° 0.1 mm 3 mps 697 mmHg 86%
    22:00 +22°C° 0.1 mm 3 mps 697 mmHg 87%
    23:00 +23°C° 0.1 mm 2 mps 697 mmHg 89%

    27 July, Saturday

    Time Temperature Precipitation Wind Pressure Humidity
    00:00 +22°C° 0 mm 3 mps 697 mmHg 89%
    01:00 +22°C° 0 mm 3 mps 696 mmHg 89%
    02:00 +22°C° 0 mm 3 mps 696 mmHg 89%
    03:00 +22°C° 0 mm 3 mps 696 mmHg 90%
    04:00 +22°C° 0 mm 3 mps 696 mmHg 90%
    05:00 +22°C° 0 mm 3 mps 696 mmHg 90%
    06:00 +22°C° 0 mm 4 mps 696 mmHg 89%
    07:00 +22°C° 0 mm 4 mps 697 mmHg 88%
    08:00 +22°C° 0 mm 4 mps 697 mmHg 87%
    09:00 +22°C° 0 mm 4 mps 697 mmHg 86%
    10:00 +23°C° 0 mm 4 mps 697 mmHg 84%
    11:00 +23°C° 0 mm 4 mps 696 mmHg 83%
    12:00 +25°C° 0 mm 4 mps 696 mmHg 80%
    13:00 +25°C° 0 mm 4 mps 696 mmHg 78%
    14:00 +26°C° 0 mm 4 mps 695 mmHg 75%
    15:00 +26°C° 0 mm 4 mps 695 mmHg 75%
    16:00 +26°C° 0 mm 3 mps 695 mmHg 75%
    17:00 +26°C° 0 mm 3 mps 696 mmHg 75%
    18:00 +25°C° 0.2 mm 3 mps 696 mmHg 76%
    19:00 +25°C° 0.2 mm 4 mps 697 mmHg 78%
    20:00 +23°C° 0.2 mm 4 mps 697 mmHg 79%
    21:00 +23°C° 0.2 mm 4 mps 697 mmHg 81%
    22:00 +23°C° 0.2 mm 4 mps 697 mmHg 83%
    23:00 +22°C° 0.2 mm 4 mps 697 mmHg 84%
    Show more